This is the latest recevied weather packets stored in our database for station/object N0KWA. If no packets are shown the sender has not sent any weather packets the latest 10 day(s).
| Time | Temp. | Humidity | Pressure | Rain* | Wind** | Luminosity | Snow |
|---|---|---|---|---|---|---|---|
| 1777331780 | 26.67° C | 78% | 1017.2 hPa | 0 mm | - | 5 W/m² | - |
| 1777331477 | 26.67° C | 78% | 1017 hPa | 0 mm | - | 11 W/m² | - |
| 1777331175 | 26.67° C | 78% | 1017 hPa | 0 mm | - | 7 W/m² | - |
| 1777330871 | 26.67° C | 78% | 1016.9 hPa | 0 mm | - | 7 W/m² | - |
| 1777330568 | 26.67° C | 79% | 1016.9 hPa | 0 mm | - | 15 W/m² | - |
| 1777330266 | 26.67° C | 78% | 1017 hPa | 0 mm | - | 5 W/m² | - |
| 1777329963 | 27.22° C | 76% | 1017 hPa | 0 mm | - | 4 W/m² | - |
| 1777329662 | 27.22° C | 76% | 1016.9 hPa | 0 mm | - | 6 W/m² | - |
| 1777329360 | 27.22° C | 75% | 1016.8 hPa | 0 mm | - | 8 W/m² | - |
| 1777329057 | 27.78° C | 75% | 1017 hPa | 0 mm | - | 7 W/m² | - |
| 1777328754 | 27.78° C | 74% | 1016.8 hPa | 0 mm | - | 10 W/m² | - |
| 1777328452 | 27.78° C | 73% | 1016.7 hPa | 0 mm | - | 8 W/m² | - |
| 1777328151 | 28.33° C | 72% | 1016.8 hPa | 0 mm | - | 10 W/m² | - |
| 1777327849 | 28.33° C | 72% | 1016.8 hPa | 0 mm | - | 11 W/m² | - |
| 1777327546 | 28.33° C | 71% | 1016.8 hPa | 0 mm | - | 11 W/m² | - |
| 1777327244 | 28.33° C | 70% | 1016.8 hPa | 0 mm | - | 12 W/m² | - |
| 1777326940 | 28.33° C | 69% | 1016.7 hPa | 0 mm | - | 12 W/m² | - |
| 1777326637 | 28.33° C | 68% | 1017 hPa | 0 mm | - | 17 W/m² | - |
| 1777326334 | 28.33° C | 67% | 1016.9 hPa | 0 mm | - | 15 W/m² | - |
| 1777326032 | 28.33° C | 69% | 1017 hPa | 0 mm | - | 24 W/m² | - |
| 1777325730 | 28.33° C | 68% | 1017 hPa | 0 mm | - | 17 W/m² | - |
| 1777325428 | 28.89° C | 66% | 1017.2 hPa | 0 mm | - | 19 W/m² | - |
| 1777325125 | 28.89° C | 66% | 1017.1 hPa | 0 mm | - | 21 W/m² | - |
| 1777324821 | 28.89° C | 64% | 1017.1 hPa | 0 mm | - | 21 W/m² | - |
| 1777324520 | 28.89° C | 64% | 1017.2 hPa | 0 mm | - | 19 W/m² | - |
* Rain latest hour (hover to see other rain measurements)
** Current wind speed in m/s (hover to see current wind gust speed)